Regional Weather Roundup
Issued by NWS

Home | Current Version | Previous Version | Text Only | Print | Product List | Glossary Off
Versions: 1 2 3 4 5 6 7 8 9 10 11 12 13 14 15 16 17 18 19 20 21 22 23 24 25 26 27 28 29 30 31 32 33 34 35 36 37 38 39 40 41 42 43 44 45 46 47 48 49 50

000
ASUS43 KBIS 280310
RWRND

NORTH DAKOTA REGIONAL WEATHER ROUNDUP
NATIONAL WEATHER SERVICE BISMARCK ND
1000 PM CDT WED APR 27 2016

NOTE: "FAIR" INDICATES FEW OR NO CLOUDS BELOW 12,000 FEET WITH NO
SIGNIFICANT WEATHER AND/OR OBSTRUCTIONS TO VISIBILITY.


NDZ001>003-009>011-017-280400-
NORTHWEST NORTH DAKOTA

CITY           SKY/WX    TMP DP  RH WIND       PRES   REMARKS
WILLISTON      CLOUDY    46  31  55 NE7       30.05R
MINOT          CLOUDY    48  26  42 N7        30.03R
MINOT AFB      CLOUDY    48  25  40 NE16      30.03R
$$

NDZ018>021-031>035-040>046-280400-
SOUTHWEST NORTH DAKOTA

CITY           SKY/WX    TMP DP  RH WIND       PRES   REMARKS
BISMARCK       MOCLDY    47  31  53 NE9       29.96R
DICKINSON      CLOUDY    39  27  62 NE8       29.97F
GARRISON         N/A     46  28  49 NE5       30.00R
HETTINGER ARPT LGT SNOW  33  31  92 N3        29.99R FOG
$$

NDZ004>008-012>016-024-026-027-054-280400-
NORTHEAST NORTH DAKOTA

CITY           SKY/WX    TMP DP  RH WIND       PRES   REMARKS
GRAND FORKS    CLOUDY    48  27  44 NE14      30.01R
GRND FRKS AFB  MOCLDY    48  24  39 NE14      30.02R
DEVILS LAKE    MOCLDY    47  25  42 NE14      30.03R
$$

NDZ022-023-025-028>030-036>039-047>053-280400-
SOUTHEAST NORTH DAKOTA

CITY           SKY/WX    TMP DP  RH WIND       PRES   REMARKS
FARGO          CLOUDY    52  19  27 E13       29.96R
JAMESTOWN      CLOUDY    46  30  53 NE12      29.94R
$$





USA.gov is the U.S. government's official web portal to all federal, state and local government web resources and services.